Estación Meteorológica de la Universidad de Murcia
Estación Meteorológica de la Universidad de Murcia
Universidad de Murcia
 

Temperatura y Humedad del sueloTemperatura y Humedad del suelo

 

Temperatura del suelo máxima: 22,5 ºC a las 13:16:00 del día 23/04/2019
Temperatura del suelo mínima: 11 ºC a las 06:31:00 del día 23/04/2019
Humedad del suelo máxima: 0 % a las 00:00:00 del día 23/04/2019
Humedad del suelo mínima: 999,9 % a las 00:00:00 del día 23/04/2019

||Temperatura del suelo máxima últimos meses|| ---- ||Temperatura del suelo mínima últimos meses||

----||Humedad del suelo máxima últimos meses|| ---- ||Humedad del suelo mínima últimos meses||


Temperatura del suelo máxima

  • 1 - 22,5 ºC del día 23/04/2019
  • 2 - 21,3 ºC del día 22/04/2019
  • 3 - 17,5 ºC del día 21/04/2019
  • 4 - 15,9 ºC del día 20/04/2019
  • 5 - 16,9 ºC del día 19/04/2019
  • 6 - 18,2 ºC del día 18/04/2019
  • 7 - 24,8 ºC del día 17/04/2019
  • 8 - 27,8 ºC del día 16/04/2019
  • 9 - 26,9 ºC del día 15/04/2019
  • 10 - 30,2 ºC del día 14/04/2019
  • 11 - 27 ºC del día 13/04/2019
  • 12 - 23,9 ºC del día 12/04/2019
  • 13 - 23,3 ºC del día 11/04/2019
  • 14 - 21,7 ºC del día 10/04/2019
  • 15 - 24,2 ºC del día 09/04/2019
  • 16 - 24,7 ºC del día 08/04/2019
  • 17 - 22,3 ºC del día 07/04/2019
  • 18 - 21,1 ºC del día 06/04/2019
  • 19 - 23,8 ºC del día 05/04/2019
  • 20 - 22,9 ºC del día 04/04/2019
  • 21 - 27,1 ºC del día 03/04/2019
  • 22 - 25,5 ºC del día 02/04/2019
  • 23 - 13,8 ºC del día 01/04/2019
  • 24 - 19,6 ºC del día 31/03/2019
  • 25 - 19,6 ºC del día 30/03/2019
  • 26 - 19,6 ºC del día 29/03/2019
  • 27 - 19,6 ºC del día 28/03/2019
  • 28 - 19,6 ºC del día 27/03/2019
  • 29 - 19,6 ºC del día 26/03/2019
  • 30 - 19,6 ºC del día 25/03/2019
  • 31 - 19,6 ºC del día 24/03/2019
  • 32 - 19,6 ºC del día 23/03/2019
  • 33 - 19,6 ºC del día 22/03/2019
  • 34 - 19,6 ºC del día 21/03/2019
  • 35 - 19,6 ºC del día 20/03/2019
  • 36 - 21,2 ºC del día 19/03/2019
  • 37 - 17,8 ºC del día 18/03/2019
  • 38 - 28,2 ºC del día 17/03/2019
  • 39 - 29 ºC del día 16/03/2019
  • 40 - 27,5 ºC del día 15/03/2019
  • 41 - 23,8 ºC del día 14/03/2019
  • 42 - 24,5 ºC del día 13/03/2019
  • 43 - 26,9 ºC del día 12/03/2019
  • 44 - 24,2 ºC del día 11/03/2019
  • 45 - 28,6 ºC del día 10/03/2019
  • 46 - 24,8 ºC del día 09/03/2019
  • 47 - 23,9 ºC del día 08/03/2019
  • 48 - 22,2 ºC del día 07/03/2019
  • 49 - 23,4 ºC del día 06/03/2019
  • 50 - 25,1 ºC del día 05/03/2019
  • 51 - 26,9 ºC del día 04/03/2019
  • 52 - 27,8 ºC del día 03/03/2019
  • 53 - 25,6 ºC del día 02/03/2019
  • 54 - 24,7 ºC del día 01/03/2019
  • 55 - 28,3 ºC del día 28/02/2019
  • 56 - 25,2 ºC del día 27/02/2019
  • 57 - 23,6 ºC del día 26/02/2019
  • 58 - 22,1 ºC del día 25/02/2019

||Volver al inicio de la página||


Temperatura del suelo mínima

  • 1 - 11 ºC del día 23/04/2019
  • 2 - 11,3 ºC del día 22/04/2019
  • 3 - 12,1 ºC del día 21/04/2019
  • 4 - 10,4 ºC del día 20/04/2019
  • 5 - 10,9 ºC del día 19/04/2019
  • 6 - 12,9 ºC del día 18/04/2019
  • 7 - 14 ºC del día 17/04/2019
  • 8 - 10,8 ºC del día 16/04/2019
  • 9 - 12,9 ºC del día 15/04/2019
  • 10 - 8,7 ºC del día 14/04/2019
  • 11 - 6,4 ºC del día 13/04/2019
  • 12 - 7,1 ºC del día 12/04/2019
  • 13 - 8,6 ºC del día 11/04/2019
  • 14 - 7,5 ºC del día 10/04/2019
  • 15 - 8,3 ºC del día 09/04/2019
  • 16 - 11,8 ºC del día 08/04/2019
  • 17 - 7,2 ºC del día 07/04/2019
  • 18 - 5,5 ºC del día 06/04/2019
  • 19 - 7,5 ºC del día 05/04/2019
  • 20 - 8,5 ºC del día 04/04/2019
  • 21 - 10,5 ºC del día 03/04/2019
  • 22 - 10,4 ºC del día 02/04/2019
  • 23 - 9,6 ºC del día 01/04/2019
  • 24 - 6,5 ºC del día 31/03/2019
  • 25 - 6,5 ºC del día 30/03/2019
  • 26 - 6,5 ºC del día 29/03/2019
  • 27 - 6,5 ºC del día 28/03/2019
  • 28 - 6,5 ºC del día 27/03/2019
  • 29 - 6,5 ºC del día 26/03/2019
  • 30 - 6,5 ºC del día 25/03/2019
  • 31 - 6,5 ºC del día 24/03/2019
  • 32 - 6,5 ºC del día 23/03/2019
  • 33 - 6,5 ºC del día 22/03/2019
  • 34 - 6,5 ºC del día 21/03/2019
  • 35 - 6,5 ºC del día 20/03/2019
  • 36 - 8,5 ºC del día 19/03/2019
  • 37 - 9,2 ºC del día 18/03/2019
  • 38 - 6,4 ºC del día 17/03/2019
  • 39 - 6,6 ºC del día 16/03/2019
  • 40 - 6,3 ºC del día 15/03/2019
  • 41 - 5,5 ºC del día 14/03/2019
  • 42 - 8,4 ºC del día 13/03/2019
  • 43 - 6,7 ºC del día 12/03/2019
  • 44 - 8,5 ºC del día 11/03/2019
  • 45 - 6,7 ºC del día 10/03/2019
  • 46 - 5,2 ºC del día 09/03/2019
  • 47 - 3,9 ºC del día 08/03/2019
  • 48 - 5,9 ºC del día 07/03/2019
  • 49 - 13,4 ºC del día 06/03/2019
  • 50 - 8,2 ºC del día 05/03/2019
  • 51 - 6,4 ºC del día 04/03/2019
  • 52 - 5 ºC del día 03/03/2019
  • 53 - 6,6 ºC del día 02/03/2019
  • 54 - 4,9 ºC del día 01/03/2019
  • 55 - 2,8 ºC del día 28/02/2019
  • 56 - 2,8 ºC del día 27/02/2019
  • 57 - 2,4 ºC del día 26/02/2019
  • 58 - 4,3 ºC del día 25/02/2019

||Volver al inicio de la página||


Humedad del suelo máxima

  • 1 - 0 % del día 23/04/2019
  • 2 - 0 % del día 22/04/2019
  • 3 - 0 % del día 21/04/2019
  • 4 - 0 % del día 20/04/2019
  • 5 - 0 % del día 19/04/2019
  • 6 - 0 % del día 18/04/2019
  • 7 - 0 % del día 17/04/2019
  • 8 - 0 % del día 16/04/2019
  • 9 - 0 % del día 15/04/2019
  • 10 - 0 % del día 14/04/2019
  • 11 - 0 % del día 13/04/2019
  • 12 - 0 % del día 12/04/2019
  • 13 - 0 % del día 11/04/2019
  • 14 - 0 % del día 10/04/2019
  • 15 - 0 % del día 09/04/2019
  • 16 - 0 % del día 08/04/2019
  • 17 - 0 % del día 07/04/2019
  • 18 - 0 % del día 06/04/2019
  • 19 - 0 % del día 05/04/2019
  • 20 - 0 % del día 04/04/2019
  • 21 - 0 % del día 03/04/2019
  • 22 - 0 % del día 02/04/2019
  • 23 - 0 % del día 01/04/2019
  • 24 - 0 % del día 31/03/2019
  • 25 - 0 % del día 30/03/2019
  • 26 - 0 % del día 29/03/2019
  • 27 - 0 % del día 28/03/2019
  • 28 - 0 % del día 27/03/2019
  • 29 - 0 % del día 26/03/2019
  • 30 - 0 % del día 25/03/2019
  • 31 - 0 % del día 24/03/2019
  • 32 - 0 % del día 23/03/2019
  • 33 - 0 % del día 22/03/2019
  • 34 - 0 % del día 21/03/2019
  • 35 - 0 % del día 20/03/2019
  • 36 - 0 % del día 19/03/2019
  • 37 - 0 % del día 18/03/2019
  • 38 - 0 % del día 17/03/2019
  • 39 - 0 % del día 16/03/2019
  • 40 - 0 % del día 15/03/2019
  • 41 - 0 % del día 14/03/2019
  • 42 - 0 % del día 13/03/2019
  • 43 - 0 % del día 12/03/2019
  • 44 - 0 % del día 11/03/2019
  • 45 - 0 % del día 10/03/2019
  • 46 - 0 % del día 09/03/2019
  • 47 - 0 % del día 08/03/2019
  • 48 - 0 % del día 07/03/2019
  • 49 - 0 % del día 06/03/2019
  • 50 - 0 % del día 05/03/2019
  • 51 - 0 % del día 04/03/2019
  • 52 - 0 % del día 03/03/2019
  • 53 - 0 % del día 02/03/2019
  • 54 - 0 % del día 01/03/2019
  • 55 - 0 % del día 28/02/2019
  • 56 - 0 % del día 27/02/2019
  • 57 - 0 % del día 26/02/2019
  • 58 - 0 % del día 25/02/2019

||Volver al inicio de la página||


Humedad del suelo mínima

  • 1 - 999,9 % del día 23/04/2019
  • 2 - 999,9 % del día 22/04/2019
  • 3 - 999,9 % del día 21/04/2019
  • 4 - 999,9 % del día 20/04/2019
  • 5 - 999,9 % del día 19/04/2019
  • 6 - 999,9 % del día 18/04/2019
  • 7 - 999,9 % del día 17/04/2019
  • 8 - 999,9 % del día 16/04/2019
  • 9 - 999,9 % del día 15/04/2019
  • 10 - 999,9 % del día 14/04/2019
  • 11 - 999,9 % del día 13/04/2019
  • 12 - 999,9 % del día 12/04/2019
  • 13 - 999,9 % del día 11/04/2019
  • 14 - 999,9 % del día 10/04/2019
  • 15 - 999,9 % del día 09/04/2019
  • 16 - 999,9 % del día 08/04/2019
  • 17 - 999,9 % del día 07/04/2019
  • 18 - 999,9 % del día 06/04/2019
  • 19 - 999,9 % del día 05/04/2019
  • 20 - 999,9 % del día 04/04/2019
  • 21 - 999,9 % del día 03/04/2019
  • 22 - 999,9 % del día 02/04/2019
  • 23 - 999,9 % del día 01/04/2019
  • 24 - 999,9 % del día 31/03/2019
  • 25 - 999,9 % del día 30/03/2019
  • 26 - 999,9 % del día 29/03/2019
  • 27 - 999,9 % del día 28/03/2019
  • 28 - 999,9 % del día 27/03/2019
  • 29 - 999,9 % del día 26/03/2019
  • 30 - 999,9 % del día 25/03/2019
  • 31 - 999,9 % del día 24/03/2019
  • 32 - 999,9 % del día 23/03/2019
  • 33 - 999,9 % del día 22/03/2019
  • 34 - 999,9 % del día 21/03/2019
  • 35 - 999,9 % del día 20/03/2019
  • 36 - 999,9 % del día 19/03/2019
  • 37 - 999,9 % del día 18/03/2019
  • 38 - 999,9 % del día 17/03/2019
  • 39 - 999,9 % del día 16/03/2019
  • 40 - 999,9 % del día 15/03/2019
  • 41 - 999,9 % del día 14/03/2019
  • 42 - 999,9 % del día 13/03/2019
  • 43 - 999,9 % del día 12/03/2019
  • 44 - 999,9 % del día 11/03/2019
  • 45 - 999,9 % del día 10/03/2019
  • 46 - 999,9 % del día 09/03/2019
  • 47 - 999,9 % del día 08/03/2019
  • 48 - 999,9 % del día 07/03/2019
  • 49 - 999,9 % del día 06/03/2019
  • 50 - 999,9 % del día 05/03/2019
  • 51 - 999,9 % del día 04/03/2019
  • 52 - 999,9 % del día 03/03/2019
  • 53 - 999,9 % del día 02/03/2019
  • 54 - 999,9 % del día 01/03/2019
  • 55 - 999,9 % del día 28/02/2019
  • 56 - 999,9 % del día 27/02/2019
  • 57 - 999,9 % del día 26/02/2019
  • 58 - 999,9 % del día 25/02/2019

 

|| Temperatura Ambiente|| Humedad relativa|| Velocidad y dirección del viento|| Precipitación|| Radiación Solar Global y PAR|| Presión atmosférica|| Más información|| Volver a la página principal|| Volver al inicio de la página||


Estación Meteorológica de la Universidad de Murcia
http://estacion.um.es/
Informacion actualizada a: 24/04/2019 a las 23:56:00